#timestamp,LO_Frequency 
1469023215.1,3270453.3
1469023235.0,20050.6
1469023236.0,20050.6
1469023255.9,20050.6
                      1469023335.6,256129047.4
1469023355.5,382578338.9
1469023375.4,9999940.1
1469023395.4,286047044.4
1469023415.3,286046994.7
1469023435.2,286047011.3
1469023455.1,286046996.8
1469023475.1,117328025.1
1469023476.0,117328025.1
1469023495.0,9999943.1
1469023495.9,9999943.1
1469023515.8,9999943.0
1469023535.8,286046993.2
1469023555.7,286046993.0
1469023575.6,286046986.1
1469023595.5,286046992.7
1469023615.5,286046999.3
1469023635.4,286046993.0
1469023655.3,286047001.1
1469023675.3,286046990.4
1469023695.2,286046995.2
1469023715.1,286046995.1
1469023735.0,286046995.0
1469023735.9,286046995.0
1469023755.9,286047008.2
1469023775.8,286047003.9
1469023795.7,286047002.9
1469023815.6,286046993.8
1469023835.6,286047001.1
1469023855.5,286046990.3
1469023875.4,286046997.5
1469023895.3,286047002.3
1469023915.3,286046994.5
1469023935.2,286046996.4
1469023955.1,286046996.0
1469023975.0,286046992.2
1469023976.0,286046992.2
1469023995.9,286047005.8
1469024015.8,286047000.9
1469024035.7,286046996.5
1469024055.7,286046996.8
1469024075.6,286046997.7
1469024095.5,286047001.5
1469024115.4,286047004.8
1469024135.4,286046999.6
1469024155.3,286046995.2
1469024175.2,286047005.1
1469024195.1,286046997.3
1469024215.1,286046993.3
1469024216.0,286046993.3
1469024235.9,286047009.3
1469024255.8,286046996.5
1469024275.7,286047000.1
1469024295.7,286047026.7
1469024315.6,286046994.2
1469024335.5,286046995.4
1469024355.4,286046999.2
1469024375.4,286047004.3
1469024395.3,286046991.0
1469024415.2,286046992.9
1469024435.2,286046992.7
1469024455.1,286047002.8
1469024456.0,286047002.8
1469024475.0,286047014.8
1469024475.9,286047014.8
1469024495.9,286046980.8
1469024515.8,286046997.3
1469024535.7,286046996.2
1469024555.6,286047035.9
1469024575.6,286047001.5
1469024595.5,286047001.4
1469024615.4,286046993.3
1469024635.3,286046995.5
1469024655.3,286046994.6
1469024675.2,286047000.8
1469024695.1,286046997.3
1469024715.0,286047001.3
1469024716.0,286047001.3
1469024735.9,286046987.8
1469024755.8,286046994.4
1469024775.7,286047000.1
1469024795.7,286046993.3
1469024815.6,286046998.0
1469024835.5,286046999.8
1469024855.4,286046999.0
1469024875.4,286047001.1
1469024895.3,286047003.2
1469024915.2,286046999.9
1469024935.1,286047002.8
1469024955.1,286046997.2
1469024956.0,286046997.2
1469024975.9,286046995.4
1469024995.8,286046999.8
1469025015.7,286046998.7
1469025035.7,286046988.6
1469025055.6,286047003.1
1469025075.5,286047002.3
1469025095.4,286046998.7
1469025115.4,286047003.8
1469025135.3,286046991.7
1469025155.2,286047000.9
1469025175.2,286046996.2
1469025195.1,286046992.1
1469025196.0,286046992.1
1469025215.0,286047000.8
1469025215.9,286047000.8
1469025235.9,286047005.9
1469025255.8,286046994.5
1469025275.7,286047000.8
1469025295.6,286047000.7
1469025315.6,286046993.3
1469025335.5,286047010.3
1469025355.4,286046997.0
1469025375.3,286047009.1
1469025395.3,286046995.5
1469025415.2,286047002.1
1469025435.1,286047002.7
1469025455.0,286046997.3
1469025456.0,286046997.3
1469025475.9,286047004.9
1469025495.8,286046997.4
1469025515.7,286046993.7
1469025535.6,286046997.7
1469025555.6,286046992.3
1469025575.5,286046993.9
1469025595.4,286046999.3
1469025615.3,286047000.2
1469025635.3,286046998.7
1469025655.2,286047002.9
1469025675.1,286047008.7
1469025695.0,286047003.6
1469025696.0,286047003.6
1469025715.9,286046989.3
1469025735.8,286046994.1
1469025755.7,286046996.5
1469025775.7,286046997.7
1469025795.6,286046993.7
1469025815.5,286046999.6
1469025835.4,286046993.7
1469025855.4,286047004.3
1469025875.3,286046999.1
1469025895.2,286047000.9
1469025915.1,286046998.3
1469025935.1,286047002.5
1469025936.0,286047002.5
1469025955.9,286046994.9
1469025975.8,286047000.2
1469025995.8,286047012.1
1469026015.7,286047001.7
1469026035.6,286046999.3
1469026055.5,286046999.3
1469026075.5,286046995.5
1469026095.4,286047002.7
1469026115.3,286047001.1
1469026135.2,286046996.1
1469026155.2,286047003.6
1469026175.1,286046996.2
1469026176.0,286046996.2
1469026195.0,286047000.1
1469026195.9,286047000.1
1469026215.9,286046998.9
1469026235.8,286046999.3
1469026255.7,286047002.0
1469026275.6,286046991.9
1469026295.6,286046993.9
1469026315.5,286047000.3
1469026335.4,286047001.0
1469026355.3,286046996.9
1469026375.3,286047000.1
1469026395.2,286047008.5
1469026415.1,286046998.7
1469026435.0,286047001.2
1469026436.0,286047001.2
1469026455.9,286046993.6
1469026475.8,286047004.4
1469026495.7,286047008.8
1469026515.6,286047004.9
1469026535.6,286046998.9
1469026555.5,286047005.1
1469026575.4,286047002.3
1469026595.3,286047005.9
1469026615.3,286047002.9
1469026635.2,286046994.4
1469026655.1,286046996.2
1469026675.1,286046999.3
1469026676.0,286046999.3
1469026695.9,286046998.3
1469026715.8,286046996.1
1469026735.7,286046997.3
1469026755.7,286047001.0
1469026775.6,286047000.6
1469026795.5,286046997.2
